Regional Weather Roundup
Issued by NWS

Home | Current Version | Previous Version | Text Only | Print | Product List | Glossary On
Versions: 1 2 3 4 5 6 7 8 9 10 11 12 13 14 15 16 17 18 19 20 21 22 23 24 25 26 27 28 29 30 31 32 33 34 35 36 37 38 39 40 41 42 43 44 45 46 47 48 49 50
000
ASUS43 KLSX 311107
RWRMO

WEATHER SUMMARY FOR MISSOURI
NATIONAL WEATHER SERVICE SPRINGFIELD MO
600 AM CDT FRI JUL 31 2015

NOTE: "FAIR" INDICATES FEW OR NO CLOUDS BELOW 12,000 FEET WITH NO
       SIGNIFICANT WEATHER AND/OR OBSTRUCTIONS TO VISIBILITY.
       CURRENT SKY AND/OR WEATHER CONDITIONS ARE NOT AVAILABLE FOR
       CHILLICOTHE AND FARMINGTON.

MOZ001>031-035>038-043-044-053-054-311200-
...NORTHERN AND WESTERN MISSOURI...

CITY           SKY/WX    TMP DP  RH WIND       PRES   REMARKS
KANSAS CTY INT PTCLDY    65  60  84 SW6       30.16S
KANSAS C DTWN  CLEAR     68  65  90 CALM      30.16R
LEE`S SUMMIT   CLEAR     65  59  81 CALM      30.17S
ST JOSEPH      FOG       65  65 100 CALM      30.17R VSB 1
CHILLICOTHE      N/A     66  64  93 CALM      30.17R
KIRKSVILLE     PTCLDY    67  62  84 W6        30.15S

$$
MOZ066>068-077>081-088>096-101>105-311200-
...SOUTHWEST MISSOURI...

CITY           SKY/WX    TMP DP  RH WIND       PRES   REMARKS
SPRINGFIELD    PTCLDY    70  64  81 CALM      30.17S
JOPLIN         MOCLDY    70  65  84 VRB5      30.17R

$$
MOZ032>034-039>042-045>050-055>058-069>072-311200-
...CENTRAL MISSOURI...

CITY           SKY/WX    TMP DP  RH WIND       PRES   REMARKS
COLUMBIA       CLEAR     68  63  84 W6        30.15S
JEFFERSON CITY CLOUDY    64  63  96 CALM      30.15R FOG
ROLLA          CLEAR     63  62  97 SW5       30.16R
SEDALIA        CLEAR     66  61  84 SW6       30.17R
WHITEMAN AFB   CLEAR     63  62  97 SW2       30.15R
WARRENSBURG    CLEAR     61  61 100 CALM      30.16S
OSAGE BEACH    CLOUDY    63  61  94 CALM      30.17S VSB<1/4

$$
MOZ051-052-059>065-311200-
...EAST CENTRAL MISSOURI...

CITY           SKY/WX    TMP DP  RH WIND       PRES   REMARKS
ST LOUIS INTL  PTCLDY    71  64  78 W6        30.13R
SPIRIT OF STL  CLEAR     66  66 100 CALM      30.12R
ST CHARLES     CLEAR     67  64  90 SW6       30.11S

$$
MOZ072>076-082>087-097>100-106>115-311200-
...SOUTH CENTRAL AND SOUTHEAST MISSOURI...

CITY           SKY/WX    TMP DP  RH WIND       PRES   REMARKS
CAPE GIRARDEAU CLEAR     64  64 100 W3        30.11R
FARMINGTON     CLEAR     64  61  88 CALM      30.19R
POPLAR BLUFF   CLEAR     66  63  90 NW3       30.11R
WEST PLAINS    CLEAR     63  59  87 CALM      30.18R

$$


USA.gov is the U.S. government's official web portal to all federal, state and local government web resources and services.